Tracking 19717 objects as of 24-Jun-2019
HD Live streaming from Space Station
objects crossing your sky now

FENGYUN 1C DEB


FENGYUN 1C DEB is no longer on orbit


NORAD ID: 31694
Int'l Code: 1999-025CDC
Perigee: N/A
Apogee: N/A
Inclination: N/A
Period: N/A
Semi major axis: N/A
RCS: N/A
Launch date: May 10, 1999
Source: People's Republic of China (PRC)
Launch site: Taiyaun Space Center, China (TSC)
Decay date: 2015-08-31

Note: This is SATELLITE DEBRIS
aabbcc
Your satellite tracking list
Your tracking list is empty




NASA's NSSDC Master Catalog

Two Line Element Set (TLE):
1 31694U 99025CDC 15241.86245144 +.02532851 +49105-2 +64773-2 0  9991
2 31694 101.0097 262.0877 0019342 244.2376 115.6891 15.96166914115390
Source of the keplerian elements: AFSPC